Time,TemperatureF,DewpointF,PressureIn,WindDirection,WindDirectionDegrees,WindSpeedMPH,WindSpeedGustMPH,Humidity,HourlyPrecipIn,Conditions,Clouds,dailyrainin,SoftwareType,DateUTC
2014-01-20 00:01:00,27.9,22.8,29.54,ENE,67,0.0,3.0,81,0.00,,,0.00,WeatherCatV1.24B11,2014-01-20 05:01:00,
2014-01-20 00:02:00,27.9,22.8,29.54,ENE,67,0.0,1.0,81,0.00,,,0.00,WeatherCatV1.24B11,2014-01-20 05:02:00,
2014-01-20 00:03:00,27.9,22.8,29.54,WNW,299,1.0,2.0,81,0.00,,,0.00,WeatherCatV1.24B11,2014-01-20 05:03:00,
2014-01-20 00:08:00,28.0,22.9,29.54,NE,36,0.0,0.0,81,0.00,,,0.00,WeatherCatV1.24B11,2014-01-20 05:08:00,
2014-01-20 00:13:00,28.1,23.0,29.54,NNE,26,0.0,1.0,81,0.00,,,0.00,WeatherCatV1.24B11,2014-01-20 05:13:00,
2014-01-20 00:18:00,28.1,23.0,29.54,ENE,69,0.0,2.0,81,0.00,,,0.00,WeatherCatV1.24B11,2014-01-20 05:18:00,
2014-01-20 00:23:00,28.1,23.0,29.54,North,3,0.0,0.0,81,0.00,,,0.00,WeatherCatV1.24B11,2014-01-20 05:23:00,
2014-01-20 00:28:00,28.1,23.3,29.54,NNE,20,0.0,0.0,82,0.00,,,0.00,WeatherCatV1.24B11,2014-01-20 05:28:00,
2014-01-20 00:33:00,28.1,23.0,29.54,ENE,60,1.0,1.0,81,0.00,,,0.00,WeatherCatV1.24B11,2014-01-20 05:33:00,
2014-01-20 00:38:00,28.2,23.1,29.54,NE,56,0.0,0.0,81,0.00,,,0.00,WeatherCatV1.24B11,2014-01-20 05:38:00,
2014-01-20 00:43:00,28.2,23.1,29.53,East,89,1.0,2.0,81,0.00,,,0.00,WeatherCatV1.24B11,2014-01-20 05:43:00,
2014-01-20 00:48:00,28.3,23.2,29.53,East,82,0.0,1.0,81,0.00,,,0.00,WeatherCatV1.24B11,2014-01-20 05:48:00,
2014-01-20 00:53:00,28.4,23.3,29.53,ENE,70,1.0,4.0,81,0.00,,,0.00,WeatherCatV1.24B11,2014-01-20 05:53:00,
2014-01-20 00:58:00,28.5,23.4,29.53,ENE,73,0.0,4.0,81,0.00,,,0.00,WeatherCatV1.24B11,2014-01-20 05:58:00,
2014-01-20 01:03:00,28.5,23.4,29.53,ENE,69,0.0,1.0,81,0.00,,,0.00,WeatherCatV1.24B11,2014-01-20 06:03:00,
2014-01-20 01:08:00,28.6,23.5,29.53,East,99,1.0,3.0,81,0.00,,,0.00,WeatherCatV1.24B11,2014-01-20 06:08:00,
2014-01-20 01:13:00,28.7,23.6,29.54,NNE,13,0.0,1.0,81,0.00,,,0.00,WeatherCatV1.24B11,2014-01-20 06:13:00,
2014-01-20 01:18:00,28.7,23.6,29.54,NNE,18,0.0,1.0,81,0.00,,,0.00,WeatherCatV1.24B11,2014-01-20 06:18:00,
2014-01-20 01:23:00,28.8,23.7,29.54,NE,52,0.0,1.0,81,0.00,,,0.00,WeatherCatV1.24B11,2014-01-20 06:23:00,
2014-01-20 01:28:00,29.0,23.9,29.54,SE,133,1.0,2.0,81,0.00,,,0.00,WeatherCatV1.24B11,2014-01-20 06:28:00,
2014-01-20 01:33:00,29.2,23.8,29.54,ENE,63,1.0,5.0,80,0.00,,,0.00,WeatherCatV1.24B11,2014-01-20 06:33:00,
2014-01-20 01:38:00,29.3,23.9,29.55,East,94,1.0,1.0,80,0.00,,,0.00,WeatherCatV1.24B11,2014-01-20 06:38:00,
2014-01-20 01:43:00,29.3,23.9,29.55,North,11,0.0,2.0,80,0.00,,,0.00,WeatherCatV1.24B11,2014-01-20 06:43:00,
2014-01-20 01:48:00,29.4,24.0,29.56,NNE,25,1.0,1.0,80,0.00,,,0.00,WeatherCatV1.24B11,2014-01-20 06:48:00,
2014-01-20 01:53:00,29.5,24.1,29.56,NNW,347,0.0,1.0,80,0.00,,,0.00,WeatherCatV1.24B11,2014-01-20 06:53:00,
2014-01-20 01:58:00,29.6,24.2,29.55,NE,43,0.0,1.0,80,0.00,,,0.00,WeatherCatV1.24B11,2014-01-20 06:58:00,
2014-01-20 02:03:00,29.7,24.0,29.55,East,84,1.0,2.0,79,0.00,,,0.00,WeatherCatV1.24B11,2014-01-20 07:03:00,
2014-01-20 02:08:00,29.8,24.1,29.56,East,101,0.0,1.0,79,0.00,,,0.00,WeatherCatV1.24B11,2014-01-20 07:08:00,
2014-01-20 02:13:00,29.9,24.2,29.55,NNW,327,0.0,1.0,79,0.00,,,0.00,WeatherCatV1.24B11,2014-01-20 07:13:00,
2014-01-20 02:18:00,30.0,24.3,29.55,North,1,0.0,2.0,79,0.00,,,0.00,WeatherCatV1.24B11,2014-01-20 07:18:00,
2014-01-20 02:23:00,30.0,24.3,29.56,NE,38,0.0,1.0,79,0.00,,,0.00,WeatherCatV1.24B11,2014-01-20 07:23:00,
2014-01-20 02:28:00,30.1,24.4,29.55,North,7,0.0,1.0,79,0.00,,,0.00,WeatherCatV1.24B11,2014-01-20 07:28:00,
2014-01-20 02:33:00,30.0,24.3,29.56,ENE,63,0.0,0.0,79,0.00,,,0.00,WeatherCatV1.24B11,2014-01-20 07:33:00,
2014-01-20 02:38:00,30.0,24.6,29.56,NNE,31,0.0,1.0,80,0.00,,,0.00,WeatherCatV1.24B11,2014-01-20 07:38:00,
2014-01-20 02:43:00,30.0,24.6,29.56,NE,53,0.0,3.0,80,0.00,,,0.00,WeatherCatV1.24B11,2014-01-20 07:43:00,
2014-01-20 02:48:00,30.0,24.3,29.56,East,101,2.0,4.0,79,0.00,,,0.00,WeatherCatV1.24B11,2014-01-20 07:48:00,
2014-01-20 02:53:00,30.1,24.7,29.56,ESE,115,2.0,4.0,80,0.00,,,0.00,WeatherCatV1.24B11,2014-01-20 07:53:00,
2014-01-20 02:58:00,30.2,24.5,29.56,ESE,112,2.0,3.0,79,0.00,,,0.00,WeatherCatV1.24B11,2014-01-20 07:58:00,
2014-01-20 03:03:00,30.3,24.6,29.56,East,81,0.0,1.0,79,0.00,,,0.00,WeatherCatV1.24B11,2014-01-20 08:03:00,
2014-01-20 03:08:00,30.3,24.6,29.56,East,91,0.0,3.0,79,0.00,,,0.00,WeatherCatV1.24B11,2014-01-20 08:08:00,
2014-01-20 03:13:00,30.3,24.6,29.56,ENE,67,0.0,1.0,79,0.00,,,0.00,WeatherCatV1.24B11,2014-01-20 08:13:00,
2014-01-20 03:18:00,30.3,24.6,29.56,NW,311,0.0,2.0,79,0.00,,,0.00,WeatherCatV1.24B11,2014-01-20 08:18:00,
2014-01-20 03:23:00,30.4,24.7,29.56,North,6,0.0,1.0,79,0.00,,,0.00,WeatherCatV1.24B11,2014-01-20 08:23:00,
2014-01-20 03:28:00,30.4,24.7,29.55,East,94,1.0,3.0,79,0.00,,,0.00,WeatherCatV1.24B11,2014-01-20 08:28:00,
2014-01-20 03:33:00,30.4,24.7,29.55,ESE,105,0.0,4.0,79,0.00,,,0.00,WeatherCatV1.24B11,2014-01-20 08:33:00,
2014-01-20 03:38:00,30.4,24.7,29.55,East,84,1.0,1.0,79,0.00,,,0.00,WeatherCatV1.24B11,2014-01-20 08:38:00,
2014-01-20 03:43:00,30.3,24.9,29.56,East,96,0.0,2.0,80,0.00,,,0.00,WeatherCatV1.24B11,2014-01-20 08:43:00,
2014-01-20 03:48:00,30.1,25.0,29.56,ENE,77,0.0,2.0,81,0.00,,,0.00,WeatherCatV1.24B11,2014-01-20 08:48:00,
2014-01-20 03:53:00,29.9,24.8,29.56,East,100,3.0,4.0,81,0.00,,,0.00,WeatherCatV1.24B11,2014-01-20 08:53:00,
2014-01-20 03:58:00,29.7,24.9,29.56,East,80,1.0,1.0,82,0.00,,,0.00,WeatherCatV1.24B11,2014-01-20 08:58:00,
2014-01-20 04:03:00,29.5,25.0,29.56,East,98,0.0,0.0,83,0.00,,,0.00,WeatherCatV1.24B11,2014-01-20 09:03:00,
2014-01-20 04:08:00,29.3,24.8,29.57,East,94,1.0,2.0,83,0.00,,,0.00,WeatherCatV1.24B11,2014-01-20 09:08:00,
2014-01-20 04:13:00,29.3,24.8,29.57,ESE,108,0.0,0.0,83,0.00,,,0.00,WeatherCatV1.24B11,2014-01-20 09:13:00,
2014-01-20 04:18:00,29.2,25.0,29.57,SSW,195,0.0,0.0,84,0.00,,,0.00,WeatherCatV1.24B11,2014-01-20 09:18:00,
2014-01-20 04:23:00,29.2,25.0,29.56,East,83,0.0,0.0,84,0.00,,,0.00,WeatherCatV1.24B11,2014-01-20 09:23:00,
2014-01-20 04:28:00,29.2,25.0,29.56,ESE,111,1.0,2.0,84,0.00,,,0.00,WeatherCatV1.24B11,2014-01-20 09:28:00,
2014-01-20 04:33:00,29.1,24.9,29.56,ENE,70,0.0,1.0,84,0.00,,,0.00,WeatherCatV1.24B11,2014-01-20 09:33:00,
2014-01-20 04:38:00,29.1,24.9,29.56,ENE,69,0.0,0.0,84,0.00,,,0.00,WeatherCatV1.24B11,2014-01-20 09:38:00,
2014-01-20 04:43:00,29.1,24.9,29.56,ESE,105,0.0,0.0,84,0.00,,,0.00,WeatherCatV1.24B11,2014-01-20 09:43:00,
2014-01-20 04:48:00,29.0,24.8,29.57,ENE,75,0.0,2.0,84,0.00,,,0.00,WeatherCatV1.24B11,2014-01-20 09:48:00,
2014-01-20 04:53:00,29.2,24.7,29.57,ENE,73,0.0,1.0,83,0.00,,,0.00,WeatherCatV1.24B11,2014-01-20 09:53:00,
2014-01-20 04:58:00,29.2,24.7,29.57,NE,35,0.0,1.0,83,0.00,,,0.00,WeatherCatV1.24B11,2014-01-20 09:58:00,
2014-01-20 05:03:00,29.2,24.7,29.57,NE,34,0.0,0.0,83,0.00,,,0.00,WeatherCatV1.24B11,2014-01-20 10:03:00,
2014-01-20 05:08:00,29.2,24.7,29.57,ESE,107,1.0,2.0,83,0.00,,,0.00,WeatherCatV1.24B11,2014-01-20 10:08:00,
2014-01-20 05:13:00,29.2,24.7,29.57,SE,124,0.0,3.0,83,0.00,,,0.00,WeatherCatV1.24B11,2014-01-20 10:13:00,
2014-01-20 05:18:00,29.3,24.8,29.57,ENE,70,0.0,2.0,83,0.00,,,0.00,WeatherCatV1.24B11,2014-01-20 10:18:00,
2014-01-20 05:23:00,29.3,24.8,29.57,NE,45,0.0,1.0,83,0.00,,,0.00,WeatherCatV1.24B11,2014-01-20 10:23:00,
2014-01-20 05:28:00,29.4,24.9,29.57,NNW,342,0.0,1.0,83,0.00,,,0.00,WeatherCatV1.24B11,2014-01-20 10:28:00,
2014-01-20 05:33:00,29.4,24.9,29.57,ESE,105,0.0,2.0,83,0.00,,,0.00,WeatherCatV1.24B11,2014-01-20 10:33:00,
2014-01-20 05:38:00,29.5,24.7,29.57,North,349,0.0,3.0,82,0.00,,,0.00,WeatherCatV1.24B11,2014-01-20 10:38:00,
2014-01-20 05:43:00,29.5,24.7,29.58,North,2,1.0,1.0,82,0.00,,,0.00,WeatherCatV1.24B11,2014-01-20 10:43:00,
2014-01-20 05:48:00,29.5,25.0,29.58,WNW,289,0.0,1.0,83,0.00,,,0.00,WeatherCatV1.24B11,2014-01-20 10:48:00,
2014-01-20 05:53:00,29.6,25.1,29.58,ESE,103,0.0,0.0,83,0.00,,,0.00,WeatherCatV1.24B11,2014-01-20 10:53:00,
2014-01-20 05:58:00,29.6,24.8,29.58,ENE,63,0.0,3.0,82,0.00,,,0.00,WeatherCatV1.24B11,2014-01-20 10:58:00,
2014-01-20 06:03:00,29.7,24.9,29.58,North,8,0.0,2.0,82,0.00,,,0.00,WeatherCatV1.24B11,2014-01-20 11:03:00,
2014-01-20 06:08:00,29.7,24.9,29.58,North,7,0.0,0.0,82,0.00,,,0.00,WeatherCatV1.24B11,2014-01-20 11:08:00,
2014-01-20 06:13:00,29.7,24.9,29.58,ENE,68,1.0,3.0,82,0.00,,,0.00,WeatherCatV1.24B11,2014-01-20 11:13:00,
2014-01-20 06:18:00,29.8,25.0,29.58,ESE,103,0.0,1.0,82,0.00,,,0.00,WeatherCatV1.24B11,2014-01-20 11:18:00,
2014-01-20 06:23:00,29.8,25.0,29.57,SE,136,0.0,2.0,82,0.00,,,0.00,WeatherCatV1.24B11,2014-01-20 11:23:00,
2014-01-20 06:28:00,29.9,25.1,29.57,ENE,78,0.0,0.0,82,0.00,,,0.00,WeatherCatV1.24B11,2014-01-20 11:28:00,
2014-01-20 06:33:00,29.8,25.0,29.57,ENE,77,0.0,1.0,82,0.00,,,0.00,WeatherCatV1.24B11,2014-01-20 11:33:00,
2014-01-20 06:38:00,29.8,25.0,29.56,ENE,77,0.0,0.0,82,0.00,,,0.00,WeatherCatV1.24B11,2014-01-20 11:38:00,
2014-01-20 06:43:00,29.8,25.0,29.56,East,96,0.0,1.0,82,0.00,,,0.00,WeatherCatV1.24B11,2014-01-20 11:43:00,
2014-01-20 06:48:00,29.8,25.0,29.57,East,96,1.0,1.0,82,0.00,,,0.00,WeatherCatV1.24B11,2014-01-20 11:48:00,
2014-01-20 06:53:00,29.8,25.3,29.57,East,79,1.0,1.0,83,0.00,,,0.00,WeatherCatV1.24B11,2014-01-20 11:53:00,
2014-01-20 06:58:00,29.8,25.3,29.56,ESE,113,0.0,0.0,83,0.00,,,0.00,WeatherCatV1.24B11,2014-01-20 11:58:00,
2014-01-20 07:03:00,29.7,25.2,29.56,East,84,0.0,0.0,83,0.00,,,0.00,WeatherCatV1.24B11,2014-01-20 12:03:00,
2014-01-20 07:08:00,29.7,25.2,29.56,East,83,0.0,0.0,83,0.00,,,0.00,WeatherCatV1.24B11,2014-01-20 12:08:00,
2014-01-20 07:13:00,29.7,25.2,29.56,East,94,1.0,1.0,83,0.00,,,0.00,WeatherCatV1.24B11,2014-01-20 12:13:00,
2014-01-20 07:18:00,29.7,25.2,29.56,East,94,0.0,0.0,83,0.00,,,0.00,WeatherCatV1.24B11,2014-01-20 12:18:00,
2014-01-20 07:23:00,29.7,25.2,29.56,NNE,13,1.0,1.0,83,0.00,,,0.00,WeatherCatV1.24B11,2014-01-20 12:23:00,
2014-01-20 07:28:00,29.8,25.3,29.56,North,11,0.0,0.0,83,0.00,,,0.00,WeatherCatV1.24B11,2014-01-20 12:28:00,
2014-01-20 07:33:00,29.9,25.4,29.56,East,88,0.0,0.0,83,0.00,,,0.00,WeatherCatV1.24B11,2014-01-20 12:33:00,
2014-01-20 07:38:00,30.0,25.5,29.57,East,89,0.0,1.0,83,0.00,,,0.00,WeatherCatV1.24B11,2014-01-20 12:38:00,
2014-01-20 07:43:00,30.0,25.5,29.56,ESE,103,0.0,1.0,83,0.00,,,0.00,WeatherCatV1.24B11,2014-01-20 12:43:00,
2014-01-20 07:48:00,30.1,25.6,29.57,ENE,58,0.0,0.0,83,0.00,,,0.00,WeatherCatV1.24B11,2014-01-20 12:48:00,
2014-01-20 07:53:00,30.1,25.3,29.57,ESE,103,0.0,2.0,82,0.00,,,0.00,WeatherCatV1.24B11,2014-01-20 12:53:00,
2014-01-20 07:58:00,30.2,25.4,29.57,NNE,29,0.0,1.0,82,0.00,,,0.00,WeatherCatV1.24B11,2014-01-20 12:58:00,
2014-01-20 08:03:00,30.3,25.5,29.57,WSW,255,0.0,1.0,82,0.00,,,0.00,WeatherCatV1.24B11,2014-01-20 13:03:00,
2014-01-20 08:08:00,30.4,25.6,29.57,ENE,77,0.0,1.0,82,0.00,,,0.00,WeatherCatV1.24B11,2014-01-20 13:08:00,
2014-01-20 08:13:00,30.5,25.7,29.57,ENE,71,0.0,0.0,82,0.00,,,0.00,WeatherCatV1.24B11,2014-01-20 13:13:00,
2014-01-20 08:18:00,30.6,25.8,29.57,ENE,71,0.0,1.0,82,0.00,,,0.00,WeatherCatV1.24B11,2014-01-20 13:18:00,
2014-01-20 08:23:00,30.6,25.8,29.57,ESE,120,0.0,0.0,82,0.00,,,0.00,WeatherCatV1.24B11,2014-01-20 13:23:00,
2014-01-20 08:28:00,30.7,25.9,29.58,East,84,0.0,0.0,82,0.00,,,0.00,WeatherCatV1.24B11,2014-01-20 13:28:00,
2014-01-20 08:33:00,30.8,25.7,29.58,ENE,69,1.0,1.0,81,0.00,,,0.00,WeatherCatV1.24B11,2014-01-20 13:33:00,
2014-01-20 08:38:00,30.8,25.7,29.58,ESE,110,1.0,1.0,81,0.00,,,0.00,WeatherCatV1.24B11,2014-01-20 13:38:00,
2014-01-20 08:43:00,30.9,25.8,29.58,East,81,0.0,1.0,81,0.00,,,0.00,WeatherCatV1.24B11,2014-01-20 13:43:00,
2014-01-20 08:48:00,30.9,25.8,29.58,ENE,60,0.0,0.0,81,0.00,,,0.00,WeatherCatV1.24B11,2014-01-20 13:48:00,
2014-01-20 08:53:00,30.9,25.8,29.59,ENE,61,0.0,1.0,81,0.00,,,0.00,WeatherCatV1.24B11,2014-01-20 13:53:00,
2014-01-20 08:58:00,31.0,26.2,29.59,NNE,32,1.0,1.0,82,0.00,,,0.00,WeatherCatV1.24B11,2014-01-20 13:58:00,
2014-01-20 09:03:00,31.0,26.2,29.59,NE,35,1.0,1.0,82,0.00,,,0.00,WeatherCatV1.24B11,2014-01-20 14:03:00,
2014-01-20 09:08:00,31.1,26.0,29.59,NE,35,0.0,1.0,81,0.00,,,0.00,WeatherCatV1.24B11,2014-01-20 14:08:00,
2014-01-20 09:13:00,31.3,26.2,29.59,ESE,120,0.0,2.0,81,0.00,,,0.00,WeatherCatV1.24B11,2014-01-20 14:13:00,
2014-01-20 09:18:00,31.4,26.0,29.59,NNW,337,0.0,1.0,80,0.00,,,0.00,WeatherCatV1.24B11,2014-01-20 14:18:00,
2014-01-20 09:23:00,31.6,26.1,29.59,NW,308,0.0,0.0,80,0.00,,,0.00,WeatherCatV1.24B11,2014-01-20 14:23:00,
2014-01-20 09:28:00,31.8,26.4,29.59,SE,141,0.0,2.0,80,0.00,,,0.00,WeatherCatV1.24B11,2014-01-20 14:28:00,
2014-01-20 09:33:00,32.0,26.2,29.59,NW,304,1.0,1.0,79,0.00,,,0.00,WeatherCatV1.24B11,2014-01-20 14:33:00,
2014-01-20 09:38:00,32.2,26.4,29.58,NNW,330,0.0,1.0,79,0.00,,,0.00,WeatherCatV1.24B11,2014-01-20 14:38:00,
2014-01-20 09:43:00,32.4,26.3,29.58,ENE,64,1.0,1.0,78,0.00,,,0.00,WeatherCatV1.24B11,2014-01-20 14:43:00,
2014-01-20 09:48:00,32.6,26.5,29.58,ENE,65,1.0,3.0,78,0.00,,,0.00,WeatherCatV1.24B11,2014-01-20 14:48:00,
2014-01-20 09:53:00,32.7,26.6,29.58,WSW,251,0.0,0.0,78,0.00,,,0.00,WeatherCatV1.24B11,2014-01-20 14:53:00,
2014-01-20 09:58:00,32.7,26.3,29.58,East,82,0.0,2.0,77,0.00,,,0.00,WeatherCatV1.24B11,2014-01-20 14:58:00,
2014-01-20 10:03:00,32.9,26.5,29.58,North,355,0.0,1.0,77,0.00,,,0.00,WeatherCatV1.24B11,2014-01-20 15:03:00,
2014-01-20 10:08:00,33.1,26.7,29.58,NE,50,0.0,1.0,77,0.00,,,0.00,WeatherCatV1.24B11,2014-01-20 15:08:00,
2014-01-20 10:13:00,33.3,26.9,29.58,North,5,0.0,0.0,77,0.00,,,0.00,WeatherCatV1.24B11,2014-01-20 15:13:00,
2014-01-20 10:18:00,33.6,26.9,29.58,North,2,0.0,1.0,76,0.00,,,0.00,WeatherCatV1.24B11,2014-01-20 15:18:00,
2014-01-20 10:23:00,33.7,27.0,29.57,East,81,0.0,0.0,76,0.00,,,0.00,WeatherCatV1.24B11,2014-01-20 15:23:00,
2014-01-20 10:28:00,33.9,26.8,29.57,East,89,0.0,2.0,75,0.00,,,0.00,WeatherCatV1.24B11,2014-01-20 15:28:00,
2014-01-20 10:33:00,34.5,27.4,29.57,ENE,72,0.0,0.0,75,0.00,,,0.00,WeatherCatV1.24B11,2014-01-20 15:33:00,
2014-01-20 10:38:00,35.2,27.8,29.57,West,259,0.0,0.0,74,0.00,,,0.00,WeatherCatV1.24B11,2014-01-20 15:38:00,
2014-01-20 10:43:00,36.3,28.1,29.56,SSE,153,0.0,0.0,72,0.00,,,0.00,WeatherCatV1.24B11,2014-01-20 15:43:00,
2014-01-20 10:48:00,37.5,28.3,29.56,ENE,59,1.0,2.0,69,0.00,,,0.00,WeatherCatV1.24B11,2014-01-20 15:48:00,
2014-01-20 10:53:00,37.8,28.2,29.56,East,89,2.0,2.0,68,0.00,,,0.00,WeatherCatV1.24B11,2014-01-20 15:53:00,
2014-01-20 10:58:00,38.1,28.1,29.56,WSW,257,0.0,2.0,67,0.00,,,0.00,WeatherCatV1.24B11,2014-01-20 15:58:00,
2014-01-20 11:03:00,38.4,28.0,29.56,NNW,332,0.0,1.0,66,0.00,,,0.00,WeatherCatV1.24B11,2014-01-20 16:03:00,
2014-01-20 11:08:00,38.3,28.0,29.55,ENE,67,1.0,4.0,66,0.00,,,0.00,WeatherCatV1.24B11,2014-01-20 16:08:00,
2014-01-20 11:13:00,38.3,27.6,29.55,NNW,347,1.0,7.0,65,0.00,,,0.00,WeatherCatV1.24B11,2014-01-20 16:13:00,
2014-01-20 11:18:00,38.5,27.8,29.55,WSW,253,2.0,2.0,65,0.00,,,0.00,WeatherCatV1.24B11,2014-01-20 16:18:00,
2014-01-20 11:23:00,38.3,27.2,29.55,NW,316,0.0,5.0,64,0.00,,,0.00,WeatherCatV1.24B11,2014-01-20 16:23:00,
2014-01-20 11:28:00,38.6,27.9,29.54,North,1,0.0,2.0,65,0.00,,,0.00,WeatherCatV1.24B11,2014-01-20 16:28:00,
2014-01-20 11:33:00,38.9,27.8,29.54,NW,309,4.0,6.0,64,0.00,,,0.00,WeatherCatV1.24B11,2014-01-20 16:33:00,
2014-01-20 11:38:00,39.0,27.9,29.54,NW,304,3.0,7.0,64,0.00,,,0.00,WeatherCatV1.24B11,2014-01-20 16:38:00,
2014-01-20 11:43:00,38.8,27.7,29.53,WSW,255,4.0,4.0,64,0.00,,,0.00,WeatherCatV1.24B11,2014-01-20 16:43:00,
2014-01-20 11:48:00,38.5,27.4,29.53,NNE,15,2.0,3.0,64,0.00,,,0.00,WeatherCatV1.24B11,2014-01-20 16:48:00,
2014-01-20 11:53:00,38.3,27.6,29.52,East,99,2.0,3.0,65,0.00,,,0.00,WeatherCatV1.24B11,2014-01-20 16:53:00,
2014-01-20 11:58:00,38.5,27.4,29.52,WNW,297,2.0,4.0,64,0.00,,,0.00,WeatherCatV1.24B11,2014-01-20 16:58:00,
2014-01-20 12:03:00,38.8,27.3,29.52,NE,55,0.0,3.0,63,0.00,,,0.00,WeatherCatV1.24B11,2014-01-20 17:03:00,
2014-01-20 12:08:00,39.0,27.9,29.52,NW,318,0.0,3.0,64,0.00,,,0.00,WeatherCatV1.24B11,2014-01-20 17:08:00,
2014-01-20 12:13:00,39.1,27.6,29.51,West,274,0.0,4.0,63,0.00,,,0.00,WeatherCatV1.24B11,2014-01-20 17:13:00,
2014-01-20 12:18:00,39.2,27.7,29.51,NW,316,0.0,4.0,63,0.00,,,0.00,WeatherCatV1.24B11,2014-01-20 17:18:00,
2014-01-20 12:23:00,39.3,27.8,29.51,WNW,293,1.0,5.0,63,0.00,,,0.00,WeatherCatV1.24B11,2014-01-20 17:23:00,
2014-01-20 12:28:00,39.7,28.5,29.50,WSW,248,1.0,1.0,64,0.00,,,0.00,WeatherCatV1.24B11,2014-01-20 17:28:00,
2014-01-20 12:33:00,40.0,28.0,29.50,West,274,1.0,4.0,62,0.00,,,0.00,WeatherCatV1.24B11,2014-01-20 17:33:00,
2014-01-20 12:38:00,40.1,27.8,29.50,WNW,288,5.0,5.0,61,0.00,,,0.00,WeatherCatV1.24B11,2014-01-20 17:38:00,
2014-01-20 12:43:00,40.2,27.8,29.50,West,276,0.0,1.0,61,0.00,,,0.00,WeatherCatV1.24B11,2014-01-20 17:43:00,
2014-01-20 12:48:00,40.1,26.9,29.50,ENE,77,1.0,5.0,59,0.00,,,0.00,WeatherCatV1.24B11,2014-01-20 17:48:00,
2014-01-20 12:53:00,40.0,27.6,29.50,WSW,252,1.0,1.0,61,0.00,,,0.00,WeatherCatV1.24B11,2014-01-20 17:53:00,
2014-01-20 12:58:00,40.1,28.1,29.50,NW,311,2.0,2.0,62,0.00,,,0.00,WeatherCatV1.24B11,2014-01-20 17:58:00,
2014-01-20 13:03:00,40.0,28.0,29.50,ESE,106,0.0,3.0,62,0.00,,,0.00,WeatherCatV1.24B11,2014-01-20 18:03:00,
2014-01-20 13:08:00,39.7,28.5,29.50,ENE,58,0.0,1.0,64,0.00,,,0.00,WeatherCatV1.24B11,2014-01-20 18:08:00,
2014-01-20 13:13:00,39.3,28.2,29.50,NE,51,1.0,2.0,64,0.00,,,0.00,WeatherCatV1.24B11,2014-01-20 18:13:00,
2014-01-20 13:18:00,39.2,28.4,29.50,East,98,1.0,2.0,65,0.00,,,0.00,WeatherCatV1.24B11,2014-01-20 18:18:00,
2014-01-20 13:23:00,39.1,28.3,29.49,NNW,327,0.0,1.0,65,0.00,,,0.00,WeatherCatV1.24B11,2014-01-20 18:23:00,
2014-01-20 13:28:00,39.4,28.6,29.50,WNW,296,1.0,1.0,65,0.00,,,0.00,WeatherCatV1.24B11,2014-01-20 18:28:00,
2014-01-20 13:33:00,39.5,28.7,29.50,NE,37,0.0,1.0,65,0.00,,,0.00,WeatherCatV1.24B11,2014-01-20 18:33:00,
2014-01-20 13:38:00,39.6,28.4,29.50,West,278,1.0,1.0,64,0.00,,,0.00,WeatherCatV1.24B11,2014-01-20 18:38:00,
2014-01-20 13:43:00,39.9,29.1,29.50,NW,305,0.0,1.0,65,0.00,,,0.00,WeatherCatV1.24B11,2014-01-20 18:43:00,
2014-01-20 13:48:00,40.1,28.9,29.50,East,81,0.0,1.0,64,0.00,,,0.00,WeatherCatV1.24B11,2014-01-20 18:48:00,
2014-01-20 13:53:00,40.3,29.1,29.50,NW,308,0.0,0.0,64,0.00,,,0.00,WeatherCatV1.24B11,2014-01-20 18:53:00,
2014-01-20 13:58:00,40.6,28.2,29.49,NNE,20,0.0,3.0,61,0.00,,,0.00,WeatherCatV1.24B11,2014-01-20 18:58:00,
2014-01-20 14:03:00,40.8,27.6,29.49,WSW,241,3.0,5.0,59,0.00,,,0.00,WeatherCatV1.24B11,2014-01-20 19:03:00,
2014-01-20 14:08:00,40.8,27.2,29.50,NNE,28,0.0,4.0,58,0.00,,,0.00,WeatherCatV1.24B11,2014-01-20 19:08:00,
2014-01-20 14:13:00,40.8,26.8,29.49,West,267,3.0,5.0,57,0.00,,,0.00,WeatherCatV1.24B11,2014-01-20 19:13:00,
2014-01-20 14:18:00,40.9,26.9,29.50,WNW,301,6.0,6.0,57,0.00,,,0.00,WeatherCatV1.24B11,2014-01-20 19:18:00,
2014-01-20 14:23:00,40.9,27.3,29.50,NNW,329,1.0,3.0,58,0.00,,,0.00,WeatherCatV1.24B11,2014-01-20 19:23:00,
2014-01-20 14:28:00,40.9,26.9,29.50,WNW,282,0.0,1.0,57,0.00,,,0.00,WeatherCatV1.24B11,2014-01-20 19:28:00,
2014-01-20 14:33:00,40.9,26.9,29.49,WSW,251,2.0,2.0,57,0.00,,,0.00,WeatherCatV1.24B11,2014-01-20 19:33:00,
2014-01-20 14:38:00,40.8,27.2,29.50,SW,235,0.0,1.0,58,0.00,,,0.00,WeatherCatV1.24B11,2014-01-20 19:38:00,
2014-01-20 14:43:00,40.7,27.1,29.50,SW,219,2.0,5.0,58,0.00,,,0.00,WeatherCatV1.24B11,2014-01-20 19:43:00,
2014-01-20 14:48:00,40.5,26.5,29.51,NW,309,1.0,3.0,57,0.00,,,0.00,WeatherCatV1.24B11,2014-01-20 19:48:00,
2014-01-20 14:53:00,40.4,26.4,29.51,WNW,300,2.0,2.0,57,0.00,,,0.00,WeatherCatV1.24B11,2014-01-20 19:53:00,
2014-01-20 14:58:00,40.3,26.7,29.51,NW,321,0.0,2.0,58,0.00,,,0.00,WeatherCatV1.24B11,2014-01-20 19:58:00,
2014-01-20 15:03:00,40.3,27.1,29.52,NE,52,0.0,2.0,59,0.00,,,0.00,WeatherCatV1.24B11,2014-01-20 20:03:00,
2014-01-20 15:08:00,40.4,27.2,29.52,NW,311,1.0,1.0,59,0.00,,,0.00,WeatherCatV1.24B11,2014-01-20 20:08:00,
2014-01-20 15:13:00,40.4,27.6,29.53,NNW,336,0.0,1.0,60,0.00,,,0.00,WeatherCatV1.24B11,2014-01-20 20:13:00,
2014-01-20 15:18:00,40.4,27.2,29.53,NW,312,0.0,1.0,59,0.00,,,0.00,WeatherCatV1.24B11,2014-01-20 20:18:00,
2014-01-20 15:23:00,40.3,27.1,29.52,NNW,338,0.0,4.0,59,0.00,,,0.00,WeatherCatV1.24B11,2014-01-20 20:23:00,
2014-01-20 15:28:00,40.2,27.0,29.52,NW,304,0.0,2.0,59,0.00,,,0.00,WeatherCatV1.24B11,2014-01-20 20:28:00,
2014-01-20 15:33:00,40.1,27.3,29.53,NW,311,4.0,4.0,60,0.00,,,0.00,WeatherCatV1.24B11,2014-01-20 20:33:00,
2014-01-20 15:38:00,40.0,26.8,29.53,NW,317,1.0,1.0,59,0.00,,,0.00,WeatherCatV1.24B11,2014-01-20 20:38:00,
2014-01-20 15:43:00,39.9,26.8,29.53,NNW,329,0.0,1.0,59,0.00,,,0.00,WeatherCatV1.24B11,2014-01-20 20:43:00,
2014-01-20 15:48:00,39.7,27.4,29.53,WNW,290,0.0,3.0,61,0.00,,,0.00,WeatherCatV1.24B11,2014-01-20 20:48:00,
2014-01-20 15:53:00,39.6,26.9,29.53,NE,35,0.0,4.0,60,0.00,,,0.00,WeatherCatV1.24B11,2014-01-20 20:53:00,
2014-01-20 15:58:00,39.5,26.8,29.53,WNW,288,5.0,6.0,60,0.00,,,0.00,WeatherCatV1.24B11,2014-01-20 20:58:00,
2014-01-20 16:03:00,39.5,27.2,29.54,West,273,0.0,1.0,61,0.00,,,0.00,WeatherCatV1.24B11,2014-01-20 21:03:00,
2014-01-20 16:08:00,39.3,27.0,29.54,NW,311,0.0,0.0,61,0.00,,,0.00,WeatherCatV1.24B11,2014-01-20 21:08:00,
2014-01-20 16:13:00,39.2,27.3,29.54,NW,307,0.0,1.0,62,0.00,,,0.00,WeatherCatV1.24B11,2014-01-20 21:13:00,
2014-01-20 16:18:00,39.0,27.1,29.54,WNW,288,1.0,2.0,62,0.00,,,0.00,WeatherCatV1.24B11,2014-01-20 21:18:00,
2014-01-20 16:23:00,39.0,27.1,29.54,West,281,2.0,2.0,62,0.00,,,0.00,WeatherCatV1.24B11,2014-01-20 21:23:00,
2014-01-20 16:28:00,38.9,27.0,29.55,WNW,298,2.0,3.0,62,0.00,,,0.00,WeatherCatV1.24B11,2014-01-20 21:28:00,
2014-01-20 16:33:00,38.9,26.2,29.55,SW,232,3.0,9.0,60,0.00,,,0.00,WeatherCatV1.24B11,2014-01-20 21:33:00,
2014-01-20 16:38:00,38.8,26.5,29.56,WNW,283,2.0,5.0,61,0.00,,,0.00,WeatherCatV1.24B11,2014-01-20 21:38:00,
2014-01-20 16:43:00,38.8,26.1,29.56,WNW,283,2.0,5.0,60,0.00,,,0.00,WeatherCatV1.24B11,2014-01-20 21:43:00,
2014-01-20 16:48:00,38.6,26.3,29.56,NW,307,1.0,3.0,61,0.00,,,0.00,WeatherCatV1.24B11,2014-01-20 21:48:00,
2014-01-20 16:53:00,38.5,26.6,29.57,WNW,303,1.0,3.0,62,0.00,,,0.00,WeatherCatV1.24B11,2014-01-20 21:53:00,
2014-01-20 16:58:00,38.3,26.8,29.58,NNW,335,1.0,2.0,63,0.00,,,0.00,WeatherCatV1.24B11,2014-01-20 21:58:00,
2014-01-20 17:03:00,38.1,26.6,29.58,NW,305,2.0,2.0,63,0.00,,,0.00,WeatherCatV1.24B11,2014-01-20 22:03:00,
2014-01-20 17:08:00,38.0,26.5,29.58,NNW,328,1.0,4.0,63,0.00,,,0.00,WeatherCatV1.24B11,2014-01-20 22:08:00,
2014-01-20 17:13:00,37.9,26.8,29.58,WNW,302,0.0,2.0,64,0.00,,,0.00,WeatherCatV1.24B11,2014-01-20 22:13:00,
2014-01-20 17:18:00,37.8,26.7,29.59,NW,316,1.0,3.0,64,0.00,,,0.00,WeatherCatV1.24B11,2014-01-20 22:18:00,
2014-01-20 17:23:00,38.1,27.0,29.60,WNW,300,6.0,6.0,64,0.00,,,0.00,WeatherCatV1.24B11,2014-01-20 22:23:00,
2014-01-20 17:28:00,38.3,27.2,29.62,NW,316,3.0,7.0,64,0.00,,,0.00,WeatherCatV1.24B11,2014-01-20 22:28:00,
2014-01-20 17:33:00,37.2,28.3,29.63,SE,132,10.0,15.0,70,0.00,,,0.00,WeatherCatV1.24B11,2014-01-20 22:33:00,
2014-01-20 17:38:00,36.1,29.0,29.64,North,1,4.0,9.0,75,0.00,,,0.00,WeatherCatV1.24B11,2014-01-20 22:38:00,
2014-01-20 17:43:00,35.6,28.8,29.64,WNW,287,2.0,8.0,76,0.00,,,0.00,WeatherCatV1.24B11,2014-01-20 22:43:00,
2014-01-20 17:48:00,35.4,29.2,29.65,East,83,2.0,8.0,78,0.00,,,0.00,WeatherCatV1.24B11,2014-01-20 22:48:00,
2014-01-20 17:53:00,35.3,29.5,29.65,WNW,292,1.0,3.0,79,0.00,,,0.00,WeatherCatV1.24B11,2014-01-20 22:53:00,
2014-01-20 17:58:00,35.3,29.8,29.65,West,276,2.0,4.0,80,0.00,,,0.00,WeatherCatV1.24B11,2014-01-20 22:58:00,
2014-01-20 18:03:00,35.3,29.5,29.65,West,262,2.0,8.0,79,0.00,,,0.00,WeatherCatV1.24B11,2014-01-20 23:03:00,
2014-01-20 18:08:00,35.3,29.5,29.65,NW,309,2.0,7.0,79,0.00,,,0.00,WeatherCatV1.24B11,2014-01-20 23:08:00,
2014-01-20 18:13:00,35.2,29.0,29.66,West,266,1.0,5.0,78,0.00,,,0.00,WeatherCatV1.24B11,2014-01-20 23:13:00,
2014-01-20 18:18:00,35.1,28.6,29.66,NW,325,1.0,3.0,77,0.00,,,0.00,WeatherCatV1.24B11,2014-01-20 23:18:00,
2014-01-20 18:23:00,35.1,28.6,29.66,WSW,255,1.0,6.0,77,0.00,,,0.00,WeatherCatV1.24B11,2014-01-20 23:23:00,
2014-01-20 18:28:00,35.1,28.0,29.67,WSW,257,4.0,8.0,75,0.00,,,0.00,WeatherCatV1.24B11,2014-01-20 23:28:00,
2014-01-20 18:33:00,35.1,27.7,29.67,WSW,257,1.0,4.0,74,0.00,,,0.00,WeatherCatV1.24B11,2014-01-20 23:33:00,
2014-01-20 18:38:00,35.0,27.6,29.67,NW,314,2.0,6.0,74,0.00,,,0.00,WeatherCatV1.24B11,2014-01-20 23:38:00,
2014-01-20 18:43:00,34.9,27.5,29.67,WNW,290,1.0,2.0,74,0.00,,,0.00,WeatherCatV1.24B11,2014-01-20 23:43:00,
2014-01-20 18:48:00,34.9,27.5,29.67,North,8,1.0,2.0,74,0.00,,,0.00,WeatherCatV1.24B11,2014-01-20 23:48:00,
2014-01-20 18:53:00,34.8,27.4,29.67,NNW,334,2.0,3.0,74,0.00,,,0.00,WeatherCatV1.24B11,2014-01-20 23:53:00,
2014-01-20 18:58:00,34.7,27.6,29.68,North,355,0.0,2.0,75,0.00,,,0.00,WeatherCatV1.24B11,2014-01-20 23:58:00,
2014-01-20 19:03:00,34.7,27.6,29.68,WNW,297,1.0,4.0,75,0.00,,,0.00,WeatherCatV1.24B11,2014-01-21 00:03:00,
2014-01-20 19:08:00,34.6,27.2,29.69,West,268,0.0,4.0,74,0.00,,,0.00,WeatherCatV1.24B11,2014-01-21 00:08:00,
2014-01-20 19:13:00,34.5,27.1,29.69,NW,316,1.0,3.0,74,0.00,,,0.00,WeatherCatV1.24B11,2014-01-21 00:13:00,
2014-01-20 19:18:00,34.4,26.7,29.69,WNW,283,2.0,5.0,73,0.00,,,0.00,WeatherCatV1.24B11,2014-01-21 00:18:00,
2014-01-20 19:23:00,34.3,26.9,29.70,WSW,250,0.0,3.0,74,0.00,,,0.00,WeatherCatV1.24B11,2014-01-21 00:23:00,
2014-01-20 19:28:00,34.2,26.8,29.70,NW,325,0.0,2.0,74,0.00,,,0.00,WeatherCatV1.24B11,2014-01-21 00:28:00,
2014-01-20 19:33:00,34.0,26.6,29.70,NW,306,2.0,5.0,74,0.00,,,0.00,WeatherCatV1.24B11,2014-01-21 00:33:00,
2014-01-20 19:38:00,33.9,26.5,29.70,NW,313,3.0,4.0,74,0.00,,,0.00,WeatherCatV1.24B11,2014-01-21 00:38:00,
2014-01-20 19:43:00,33.7,26.3,29.70,WNW,302,1.0,4.0,74,0.00,,,0.00,WeatherCatV1.24B11,2014-01-21 00:43:00,
2014-01-20 19:48:00,33.5,26.4,29.70,NW,307,1.0,2.0,75,0.00,,,0.00,WeatherCatV1.24B11,2014-01-21 00:48:00,
2014-01-20 19:53:00,33.3,25.9,29.70,NW,321,0.0,3.0,74,0.00,,,0.00,WeatherCatV1.24B11,2014-01-21 00:53:00,
2014-01-20 19:58:00,33.1,25.4,29.71,NNW,342,2.0,7.0,73,0.00,,,0.00,WeatherCatV1.24B11,2014-01-21 00:58:00,
2014-01-20 20:03:00,33.2,23.5,29.72,South,179,5.0,7.0,67,0.00,,,0.00,WeatherCatV1.24B11,2014-01-21 01:03:00,
2014-01-20 20:08:00,33.3,22.8,29.72,SSE,165,1.0,4.0,65,0.00,,,0.00,WeatherCatV1.24B11,2014-01-21 01:08:00,
2014-01-20 20:13:00,33.2,21.2,29.72,NNW,334,4.0,13.0,61,0.00,,,0.00,WeatherCatV1.24B11,2014-01-21 01:13:00,
2014-01-20 20:18:00,33.1,21.1,29.73,WNW,303,4.0,8.0,61,0.00,,,0.00,WeatherCatV1.24B11,2014-01-21 01:18:00,
2014-01-20 20:23:00,32.9,21.3,29.73,NNE,30,4.0,8.0,62,0.00,,,0.00,WeatherCatV1.24B11,2014-01-21 01:23:00,
2014-01-20 20:28:00,32.7,22.2,29.73,NNE,13,1.0,7.0,65,0.00,,,0.00,WeatherCatV1.24B11,2014-01-21 01:28:00,
2014-01-20 20:33:00,32.3,23.3,29.74,NNW,331,2.0,4.0,69,0.00,,,0.00,WeatherCatV1.24B11,2014-01-21 01:33:00,
2014-01-20 20:38:00,31.8,23.1,29.74,West,280,0.0,2.0,70,0.00,,,0.00,WeatherCatV1.24B11,2014-01-21 01:38:00,
2014-01-20 20:43:00,31.6,23.3,29.74,NW,320,0.0,2.0,71,0.00,,,0.00,WeatherCatV1.24B11,2014-01-21 01:43:00,
2014-01-20 20:48:00,31.3,23.3,29.74,WNW,295,1.0,2.0,72,0.00,,,0.00,WeatherCatV1.24B11,2014-01-21 01:48:00,
2014-01-20 20:53:00,31.0,23.0,29.75,West,279,1.0,1.0,72,0.00,,,0.00,WeatherCatV1.24B11,2014-01-21 01:53:00,
2014-01-20 20:58:00,30.9,22.6,29.75,WNW,288,1.0,3.0,71,0.00,,,0.00,WeatherCatV1.24B11,2014-01-21 01:58:00,
2014-01-20 21:03:00,30.8,20.1,29.76,WNW,296,2.0,5.0,64,0.00,,,0.00,WeatherCatV1.24B11,2014-01-21 02:03:00,
2014-01-20 21:08:00,30.7,18.1,29.76,NW,316,5.0,8.0,59,0.00,,,0.00,WeatherCatV1.24B11,2014-01-21 02:08:00,
2014-01-20 21:13:00,30.4,17.0,29.76,NE,48,3.0,4.0,57,0.00,,,0.00,WeatherCatV1.24B11,2014-01-21 02:13:00,
2014-01-20 21:18:00,30.1,16.7,29.77,NW,311,2.0,3.0,57,0.00,,,0.00,WeatherCatV1.24B11,2014-01-21 02:18:00,
2014-01-20 21:23:00,29.9,16.9,29.77,NW,307,6.0,7.0,58,0.00,,,0.00,WeatherCatV1.24B11,2014-01-21 02:23:00,
2014-01-20 21:28:00,29.7,16.4,29.78,NW,309,5.0,8.0,57,0.00,,,0.00,WeatherCatV1.24B11,2014-01-21 02:28:00,
2014-01-20 21:33:00,29.5,16.6,29.78,WNW,288,2.0,10.0,58,0.00,,,0.00,WeatherCatV1.24B11,2014-01-21 02:33:00,
2014-01-20 21:38:00,29.3,16.4,29.79,ENE,58,2.0,5.0,58,0.00,,,0.00,WeatherCatV1.24B11,2014-01-21 02:38:00,
2014-01-20 21:43:00,29.2,16.3,29.80,West,278,4.0,6.0,58,0.00,,,0.00,WeatherCatV1.24B11,2014-01-21 02:43:00,
2014-01-20 21:48:00,28.8,17.5,29.81,West,274,4.0,10.0,62,0.00,,,0.00,WeatherCatV1.24B11,2014-01-21 02:48:00,
2014-01-20 21:53:00,28.0,17.4,29.81,NW,321,2.0,6.0,64,0.00,,,0.00,WeatherCatV1.24B11,2014-01-21 02:53:00,
2014-01-20 21:58:00,27.4,17.2,29.81,West,265,1.0,7.0,65,0.00,,,0.00,WeatherCatV1.24B11,2014-01-21 02:58:00,
2014-01-20 22:03:00,26.9,16.4,29.81,WSW,243,3.0,11.0,64,0.00,,,0.00,WeatherCatV1.24B11,2014-01-21 03:03:00,
2014-01-20 22:08:00,26.5,16.7,29.81,West,264,6.0,9.0,66,0.00,,,0.00,WeatherCatV1.24B11,2014-01-21 03:08:00,
2014-01-20 22:13:00,26.2,16.1,29.81,West,270,2.0,6.0,65,0.00,,,0.00,WeatherCatV1.24B11,2014-01-21 03:13:00,
2014-01-20 22:18:00,25.9,15.8,29.81,WNW,300,4.0,7.0,65,0.00,,,0.00,WeatherCatV1.24B11,2014-01-21 03:18:00,
2014-01-20 22:23:00,25.5,15.0,29.82,SSW,200,2.0,12.0,64,0.00,,,0.00,WeatherCatV1.24B11,2014-01-21 03:23:00,
2014-01-20 22:28:00,25.2,14.8,29.82,WNW,302,4.0,12.0,64,0.00,,,0.00,WeatherCatV1.24B11,2014-01-21 03:28:00,
2014-01-20 22:33:00,25.0,14.9,29.83,WNW,299,2.0,8.0,65,0.00,,,0.00,WeatherCatV1.24B11,2014-01-21 03:33:00,
2014-01-20 22:38:00,24.7,14.3,29.83,WNW,295,3.0,7.0,64,0.00,,,0.00,WeatherCatV1.24B11,2014-01-21 03:38:00,
2014-01-20 22:43:00,24.3,14.2,29.84,West,267,2.0,7.0,65,0.00,,,0.00,WeatherCatV1.24B11,2014-01-21 03:43:00,
2014-01-20 22:48:00,24.1,13.7,29.84,North,349,1.0,4.0,64,0.00,,,0.00,WeatherCatV1.24B11,2014-01-21 03:48:00,
2014-01-20 22:53:00,23.8,13.4,29.85,NNW,342,2.0,5.0,64,0.00,,,0.00,WeatherCatV1.24B11,2014-01-21 03:53:00,
2014-01-20 22:58:00,23.4,12.7,29.85,West,269,4.0,7.0,63,0.00,,,0.00,WeatherCatV1.24B11,2014-01-21 03:58:00,
2014-01-20 23:03:00,22.9,12.2,29.85,NNW,340,5.0,10.0,63,0.00,,,0.00,WeatherCatV1.24B11,2014-01-21 04:03:00,
2014-01-20 23:08:00,22.5,11.8,29.85,WNW,285,10.0,15.0,63,0.00,,,0.00,WeatherCatV1.24B11,2014-01-21 04:08:00,
2014-01-20 23:13:00,22.1,11.5,29.86,West,259,5.0,7.0,63,0.00,,,0.00,WeatherCatV1.24B11,2014-01-21 04:13:00,
2014-01-20 23:18:00,21.8,11.2,29.86,West,280,7.0,11.0,63,0.00,,,0.00,WeatherCatV1.24B11,2014-01-21 04:18:00,
2014-01-20 23:23:00,21.5,10.9,29.86,West,273,5.0,9.0,63,0.00,,,0.00,WeatherCatV1.24B11,2014-01-21 04:23:00,
2014-01-20 23:28:00,21.3,10.7,29.86,ESE,117,1.0,10.0,63,0.00,,,0.00,WeatherCatV1.24B11,2014-01-21 04:28:00,
2014-01-20 23:33:00,21.0,10.1,29.87,NNE,27,4.0,6.0,62,0.00,,,0.00,WeatherCatV1.24B11,2014-01-21 04:33:00,
2014-01-20 23:38:00,20.7,9.8,29.87,SE,143,0.0,8.0,62,0.00,,,0.00,WeatherCatV1.24B11,2014-01-21 04:38:00,
2014-01-20 23:43:00,20.4,9.5,29.88,WSW,252,7.0,8.0,62,0.00,,,0.00,WeatherCatV1.24B11,2014-01-21 04:43:00,
2014-01-20 23:48:00,20.2,9.6,29.88,West,271,3.0,5.0,63,0.00,,,0.00,WeatherCatV1.24B11,2014-01-21 04:48:00,
2014-01-20 23:53:00,20.0,9.5,29.88,WNW,295,2.0,4.0,63,0.00,,,0.00,WeatherCatV1.24B11,2014-01-21 04:53:00,
2014-01-20 23:58:00,19.8,9.3,29.89,WNW,288,3.0,5.0,63,0.00,,,0.00,WeatherCatV1.24B11,2014-01-21 04:58:00,